Location: Aydie
(43.5695°N, 0.1043°W)
Time: 05:11:53
(UTC+00:00)

COSMO-SKYMED 1 - Pass Details

Date: 17 November 2025
Orbit: 579 x 581 km, 97.9° (Epoch: 04 December)

Event Time Altitude Azimuth Distance (km) Brightness Sun altitude
Exits shadow 17:20:48 10° 51° (NE) 1,931 4.5 -8.8°
Reaches altitude 10° 17:20:55 10° 52° (NE) 1,901 4.5 -8.8°
Maximum altitude 17:23:34 17° 92° (E) 1,517 4.0 -9.3°
Drops below altitude 10° 17:26:12 10° 132° (SE) 1,891 4.8 -9.7°
Sets 17:29:02 0° 154° (SSE) 2,784 5.8 -10.2°
